Volver al catálogo

CZ-6A DEB

ActivoPO
NORAD 61087·DEBRIS·🇨🇳 China

Lanzado Aug 6, 2024 desde Taiyuan Satellite Launch Center

Loading…

Próximos Pases (próximas 24 horas)

TLE

ActualizadoSource: Space-Track

Época: Sep 14, 2026, 10:02 UTC

1 61087U 24140ND  26257.41839214  .00001343  00000-0  30337-3 0  9997
2 61087  88.9078 251.4441 0092876 322.5961  36.8805 14.53068408108687

Sigue CZ-6A DEB en tiempo real con AllMySat

Download on the App Store